When you browse on this site, cookies collect data to enhance your experience and personalize the content and advertising you see.
Visit our Privacy Policy to learn more. By continuing to use the site, you agree to this use of cookies and data.
  • In Lithuania
  • List of Countries
  • For 7 days
  • Water Temperature
  • Satellite Maps
  • Weather Map
  • Weather Widgets
  • user-avatar
    Login

    Hourly Weather Sorka

    Today, 20 March, Wednesday

    Time Temperature Precipitation Wind Pressure Humidity
    00:00 -2°C° 0 mm 2 mps 747 mmHg 95%
    01:00 0°C° 0 mm 1 mps 747 mmHg 95%
    02:00 0°C° 0 mm 1 mps 746 mmHg 96%
    03:00 0°C° 0.2 mm 1 mps 747 mmHg 96%
    04:00 -2°C° 0.2 mm 2 mps 747 mmHg 96%
    05:00 -2°C° 0.2 mm 2 mps 747 mmHg 97%
    06:00 -1°C° 0 mm 2 mps 747 mmHg 97%
    07:00 -1°C° 0 mm 2 mps 747 mmHg 97%
    08:00 -1°C° 0 mm 2 mps 747 mmHg 97%
    09:00 -1°C° 0 mm 2 mps 747 mmHg 97%
    10:00 -1°C° 0 mm 2 mps 748 mmHg 98%
    11:00 +1°C° 0 mm 2 mps 748 mmHg 98%
    12:00 +1°C° 0.1 mm 2 mps 748 mmHg 97%
    13:00 0°C° 0.1 mm 3 mps 748 mmHg 96%
    14:00 +1°C° 0.1 mm 3 mps 748 mmHg 95%
    15:00 +1°C° 0.1 mm 3 mps 748 mmHg 94%
    16:00 +1°C° 0.1 mm 2 mps 748 mmHg 94%
    17:00 +1°C° 0.1 mm 2 mps 748 mmHg 93%
    18:00 +1°C° 0 mm 2 mps 748 mmHg 94%
    19:00 -1°C° 0 mm 2 mps 748 mmHg 94%
    20:00 -1°C° 0 mm 2 mps 748 mmHg 95%
    21:00 -1°C° 0.1 mm 2 mps 748 mmHg 94%
    22:00 -1°C° 0.1 mm 2 mps 748 mmHg 93%
    23:00 -1°C° 0.1 mm 3 mps 747 mmHg 91%

    Tomorrow, 21 March, Thursday

    Time Temperature Precipitation Wind Pressure Humidity
    00:00 -2°C° 0 mm 2 mps 747 mmHg 93%
    01:00 -3°C° 0 mm 2 mps 747 mmHg 94%
    02:00 -3°C° 0 mm 2 mps 746 mmHg 95%
    03:00 -3°C° 0.1 mm 2 mps 746 mmHg 95%
    04:00 -3°C° 0.1 mm 2 mps 746 mmHg 95%
    05:00 -2°C° 0.1 mm 2 mps 746 mmHg 95%
    06:00 -2°C° 0.1 mm 3 mps 745 mmHg 94%
    07:00 -2°C° 0.1 mm 3 mps 745 mmHg 94%
    08:00 -1°C° 0.1 mm 3 mps 745 mmHg 93%
    09:00 -1°C° 0.1 mm 3 mps 746 mmHg 94%
    10:00 0°C° 0.1 mm 3 mps 746 mmHg 94%
    11:00 0°C° 0.1 mm 3 mps 746 mmHg 95%
    12:00 0°C° 0.1 mm 3 mps 746 mmHg 94%
    13:00 +1°C° 0.1 mm 3 mps 746 mmHg 92%
    14:00 +1°C° 0.1 mm 3 mps 746 mmHg 91%
    15:00 +1°C° 0.1 mm 3 mps 747 mmHg 91%
    16:00 0°C° 0.1 mm 3 mps 747 mmHg 92%
    17:00 0°C° 0.1 mm 3 mps 747 mmHg 92%
    18:00 0°C° 0 mm 3 mps 747 mmHg 93%
    19:00 +1°C° 0 mm 2 mps 747 mmHg 93%
    20:00 -1°C° 0 mm 2 mps 747 mmHg 94%
    21:00 -1°C° 0 mm 2 mps 747 mmHg 94%
    22:00 -1°C° 0 mm 2 mps 746 mmHg 93%
    23:00 -1°C° 0 mm 2 mps 746 mmHg 93%

    Day after tomorrow, 22 March, Friday

    Time Temperature Precipitation Wind Pressure Humidity
    00:00 -2°C° 0 mm 2 mps 745 mmHg 93%
    01:00 -2°C° 0 mm 3 mps 745 mmHg 94%
    02:00 -4°C° 0 mm 3 mps 744 mmHg 95%
    03:00 -2°C° 0.8 mm 3 mps 743 mmHg 95%
    04:00 -2°C° 0.8 mm 4 mps 743 mmHg 94%
    05:00 -2°C° 0.8 mm 4 mps 742 mmHg 94%
    06:00 -1°C° 0.3 mm 4 mps 741 mmHg 94%
    07:00 -1°C° 0.3 mm 4 mps 741 mmHg 93%
    08:00 0°C° 0.3 mm 4 mps 741 mmHg 92%
    09:00 -1°C° 0.1 mm 4 mps 741 mmHg 88%
    10:00 -1°C° 0.1 mm 5 mps 741 mmHg 85%
    11:00 -1°C° 0.1 mm 5 mps 741 mmHg 81%
    12:00 -1°C° 0.1 mm 5 mps 741 mmHg 82%
    13:00 -1°C° 0.1 mm 5 mps 741 mmHg 83%
    14:00 -2°C° 0.1 mm 5 mps 741 mmHg 84%
    15:00 -1°C° 0.1 mm 5 mps 742 mmHg 85%
    16:00 -1°C° 0.1 mm 4 mps 742 mmHg 87%
    17:00 0°C° 0.1 mm 3 mps 743 mmHg 89%
    18:00 -1°C° 0.1 mm 4 mps 743 mmHg 87%
    19:00 -1°C° 0.1 mm 4 mps 744 mmHg 86%
    20:00 -1°C° 0.1 mm 5 mps 745 mmHg 85%
    21:00 -2°C° 0 mm 5 mps 745 mmHg 85%
    22:00 -2°C° 0 mm 4 mps 745 mmHg 86%
    23:00 -2°C° 0 mm 4 mps 746 mmHg 86%

    23 March, Saturday

    Time Temperature Precipitation Wind Pressure Humidity
    00:00 -3°C° 0 mm 4 mps 746 mmHg 88%
    01:00 -2°C° 0 mm 3 mps 747 mmHg 89%
    02:00 -4°C° 0 mm 3 mps 747 mmHg 91%
    03:00 -4°C° 0 mm 2 mps 747 mmHg 92%
    04:00 -5°C° 0 mm 2 mps 747 mmHg 94%
    05:00 -4°C° 0 mm 1 mps 747 mmHg 96%
    06:00 -3°C° 0 mm 1 mps 747 mmHg 94%
    07:00 -2°C° 0 mm 1 mps 747 mmHg 92%
    08:00 -1°C° 0 mm 1 mps 746 mmHg 89%
    09:00 0°C° 0 mm 1 mps 745 mmHg 89%
    10:00 -1°C° 0 mm 2 mps 744 mmHg 88%
    11:00 0°C° 0 mm 3 mps 743 mmHg 87%
    12:00 -1°C° 0.1 mm 4 mps 742 mmHg 85%
    13:00 -1°C° 0.1 mm 4 mps 741 mmHg 84%
    14:00 -1°C° 0.1 mm 5 mps 739 mmHg 83%
    15:00 -1°C° 1 mm 5 mps 738 mmHg 85%
    16:00 -1°C° 1 mm 5 mps 737 mmHg 88%
    17:00 -1°C° 1 mm 5 mps 736 mmHg 90%
    18:00 -1°C° 0.3 mm 5 mps 736 mmHg 89%
    19:00 -1°C° 0.3 mm 5 mps 735 mmHg 87%
    20:00 0°C° 0.3 mm 5 mps 735 mmHg 85%
    21:00 -1°C° 0 mm 4 mps 735 mmHg 84%
    22:00 -2°C° 0 mm 4 mps 735 mmHg 83%
    23:00 -3°C° 0 mm 4 mps 735 mmHg 81%

    24 March, Sunday

    Time Temperature Precipitation Wind Pressure Humidity
    00:00 -3°C° 0 mm 4 mps 734 mmHg 82%
    01:00 -4°C° 0 mm 5 mps 734 mmHg 82%
    02:00 -2°C° 0 mm 5 mps 734 mmHg 83%
    03:00 -4°C° 0 mm 5 mps 734 mmHg 83%
    04:00 -3°C° 0 mm 4 mps 733 mmHg 83%
    05:00 -4°C° 0 mm 4 mps 733 mmHg 84%
    06:00 -5°C° 0 mm 5 mps 733 mmHg 82%
    07:00 -4°C° 0 mm 5 mps 733 mmHg 80%
    08:00 -4°C° 0 mm 6 mps 732 mmHg 78%
    09:00 -4°C° 0.2 mm 6 mps 732 mmHg 80%
    10:00 -4°C° 0.2 mm 6 mps 732 mmHg 82%
    11:00 -3°C° 0.2 mm 7 mps 732 mmHg 84%
    12:00 -3°C° 0.4 mm 7 mps 732 mmHg 83%
    13:00 -2°C° 0.4 mm 7 mps 732 mmHg 82%
    14:00 -2°C° 0.4 mm 7 mps 733 mmHg 82%
    15:00 -2°C° 0.5 mm 7 mps 733 mmHg 82%
    16:00 -2°C° 0.5 mm 7 mps 734 mmHg 83%
    17:00 -3°C° 0.5 mm 7 mps 735 mmHg 84%
    18:00 -3°C° 0.4 mm 6 mps 736 mmHg 83%
    19:00 -3°C° 0.4 mm 6 mps 737 mmHg 82%
    20:00 -4°C° 0.4 mm 6 mps 738 mmHg 82%
    21:00 -4°C° 0 mm 6 mps 739 mmHg 82%
    22:00 -5°C° 0 mm 5 mps 739 mmHg 83%
    23:00 -5°C° 0 mm 5 mps 740 mmHg 84%

    25 March, Monday

    Time Temperature Precipitation Wind Pressure Humidity
    00:00 -5°C° 0 mm 4 mps 740 mmHg 86%
    01:00 -7°C° 0 mm 4 mps 740 mmHg 89%
    02:00 -7°C° 0 mm 3 mps 740 mmHg 91%
    03:00 -8°C° 0 mm 3 mps 740 mmHg 93%
    04:00 -8°C° 0 mm 2 mps 740 mmHg 94%
    05:00 -8°C° 0 mm 1 mps 740 mmHg 95%
    06:00 -6°C° 0 mm 1 mps 740 mmHg 92%
    07:00 -4°C° 0 mm 1 mps 739 mmHg 88%
    08:00 -3°C° 0 mm 1 mps 739 mmHg 84%
    09:00 -2°C° 0 mm 1 mps 739 mmHg 84%
    10:00 0°C° 0 mm 1 mps 739 mmHg 85%
    11:00 -1°C° 0 mm 2 mps 738 mmHg 85%
    12:00 +1°C° 0 mm 2 mps 738 mmHg 84%
    13:00 +1°C° 0 mm 2 mps 737 mmHg 82%
    14:00 +2°C° 0 mm 2 mps 737 mmHg 81%
    15:00 +1°C° 0 mm 2 mps 736 mmHg 82%
    16:00 +1°C° 0 mm 2 mps 736 mmHg 83%
    17:00 -1°C° 0 mm 2 mps 736 mmHg 83%
    18:00 -1°C° 0.1 mm 2 mps 735 mmHg 85%
    19:00 -1°C° 0.1 mm 3 mps 735 mmHg 86%
    20:00 -2°C° 0.1 mm 3 mps 735 mmHg 87%
    21:00 -2°C° 0.1 mm 3 mps 735 mmHg 88%
    22:00 -2°C° 0.1 mm 3 mps 734 mmHg 89%
    23:00 -2°C° 0.1 mm 3 mps 734 mmHg 90%
    Show more